Temp
24 22 20 18 16 15 16 15 14 14 14 14 14 14 14 14 13 14 14 13 14 14 14 14 14 13 13 13 13 13 13 13 13 13 12 12 12 12 12 12 12 12 12
23 22 19 16 15 15 15 14 14 14 14 14 14 14 14 14 14 13 13 14 13 14 14 13 13 13 12 13 13 14 13 13 13 15 14 14 12 12 12 12 12 12 12
23 23 19 16 15 15 14 13 14 14 13 13 13 14 14 14 14 14 14 13 13 13 14 14 13 12 12 13 13 13 14 13 13 13 16 15 16 14 13 12 12 12 12
22 22 20 17 15 15 13 13 14 14 13 13 13 13 14 14 14 14 14 14 14 13 13 13 13 12 12 12 13 13 14 14 13 13 14 15 15 17 15 12 12 12 12
23 22 19 17 15 13 12 13 13 13 13 13 13 13 13 13 14 14 13 12 12 12 12 12 12 12 12 12 13 13 13 14 14 14 13 14 14 14 15 16 14 12 12
22 20 18 16 16 13 12 12 12 13 12 12 13 13 13 13 13 13 12 12 11 12 12 12 13 12 12 13 13 13 13 14 14 14 15 15 15 15 15 16 15 14 14
21 18 17 17 16 13 13 12 12 13 12 12 13 13 13 13 13 13 13 12 11 11 11 11 12 12 13 13 13 13 14 15 15 14 15 15 16 17 15 16 15 15 14
19 18 17 17 16 14 13 12 12 14 12 12 13 13 13 13 13 13 13 12 12 11 12 12 12 13 13 13 13 14 14 15 15 15 15 15 15 16 16 16 15 15 15
17 19 17 17 15 14 13 12 13 13 12 12 13 13 13 13 12 13 13 12 12 12 13 12 12 12 12 12 13 13 14 14 15 15 15 15 15 16 15 15 15 17 16
17 18 18 16 15 15 13 12 12 13 12 12 13 13 12 13 13 13 12 12 12 12 12 12 13 12 11 11 12 12 13 15 14 13 15 14 15 15 14 14 13 14 15
16 16 16 16 15 14 12 12 12 12 12 12 13 12 12 12 12 12 12 12 12 12 12 12 12 12 12 11 11 11 11 12 13 15 15 14 14 14 14 13 13 12 12
15 15 15 15 14 13 12 12 12 12 12 12 13 13 12 12 12 12 12 12 12 12 12 12 12 12 12 12 11 11 12 12 12 13 14 14 15 13 13 13 13 12 12
14 14 14 13 13 13 12 12 12 12 12 12 13 13 13 12 12 12 13 12 13 12 12 12 12 12 12 12 12 12 12 13 14 13 13 13 13 12 12 12 12 12 12
11 12 13 13 13 13 12 12 13 13 13 13 13 13 13 13 12 13 13 13 13 12 12 12 12 12 12 12 12 12 12 12 13 13 13 13 12 12 12 11 12 12 12
8 9 9 10 12 12 12 13 12 13 13 13 13 13 13 13 13 13 12 12 11 12 12 12 12 12 12 12 12 12 13 13 13 13 13 12 13 13 13 12 13 12 12
7 7 7 7 8 8 9 8 9 12 12 12 12 12 12 12 12 12 12 12 12 12 11 11 12 11 12 13 13 13 13 13 13 12 12 12 12 13 13 13 13 13 13
5 5 5 5 5 5 6 6 6 6 7 7 7 9 10 10 11 11 12 12 12 12 12 12 12 12 10 11 11 12 12 11 12 12 12 12 12 12 12 12 12 12 12
3 3 3 3 3 3 3 3 3 3 3 3 3 4 5 5 7 8 9 9 10 10 10 10 10 9 7 7 10 11 11 11 10 10 10 10 10 10 10 10 10 9 8
1 1 1 2 2 1 1 1 1 1 1 0 1 1 2 2 3 3 3 4 5 5 4 3 3 3 3 5 6 7 8 8 7 6 6 6 6 6 6 7 6 6 3
-0 -0 -1 -1 0 1 0 -0 -1 -1 -1 -1 -1 -1 -0 0 0 0 0 0 1 0 0 -0 -0 -0 0 2 4 6 6 5 2 0 -1 -1 1 3 5 5 4 1 -1
-1 -1 -2 -2 -2 -0 -0 -0 -1 -2 -2 -2 -2 -2 -2 -1 -1 -1 -1 -1 -1 -2 -2 -2 -3 -3 -2 -2 1 2 2 -0 -2 -4 -4 -4 -4 -2 -0 1 -0 -3 -3
-2 -2 -3 -3 -3 -3 -1 -1 -2 -2 -3 -3 -3 -3 -3 -3 -2 -2 -2 -2 -2 -3 -3 -3 -4 -4 -5 -5 -4 -3 -2 -3 -4 -5 -6 -6 -6 -5 -4 -4 -4 -3 -3
-3 -3 -3 -4 -4 -4 -4 -2 -3 -3 -4 -4 -4 -4 -4 -4 -3 -3 -3 -3 -3 -3 -3 -3 -4 -4 -5 -5 -6 -6 -5 -6 -6 -6 -7 -6 -5 -4 -4 -4 -4 -4 -6
-3 -3 -4 -4 -5 -5 -5 -4 -3 -4 -4 -4 -4 -4 -4 -4 -4 -4 -4 -4 -4 -3 -3 -3 -4 -4 -4 -5 -6 -6 -6 -6 -6 -6 -5 -6 -6 -7 -7 -7 -7 -8 -8
-5 -5 -5 -5 -5 -5 -6 -6 -5 -4 -4 -4 -5 -5 -5 -5 -6 -6 -5 -5 -6 -5 -5 -5 -5 -5 -5 -6 -6 -6 -6 -7 -7 -7 -7 -7 -7 -7 -8 -8 -9 -9 -8
-6 -6 -6 -6 -6 -6 -7 -7 -6 -5 -5 -5 -5 -6 -6 -6 -6 -6 -7 -8 -7 -7 -7 -7 -7 -7 -7 -7 -7 -8 -6 -5 -6 -7 -8 -8 -9 -9 -9 -9 -10 -10 -10
Height
689 687 688 689 693 696 700 705 712 719 724 732 737 742 743 746 749 751 754 759 764 766 771 775 782 788 796 801 809 817 824 832 838 843 851 855 858 861 863 866 868 870 874
683 681 684 686 689 691 695 701 708 713 720 727 732 737 739 742 744 747 750 754 758 763 765 771 777 785 794 799 806 813 822 828 835 838 845 853 859 861 861 864 865 867 870
673 672 678 680 685 687 691 696 703 708 717 722 728 734 737 739 740 742 741 746 751 757 760 766 774 783 790 795 803 809 815 823 831 836 837 847 846 854 858 861 863 864 866
666 664 669 673 678 684 691 696 702 706 714 719 725 729 732 734 735 737 736 738 744 748 754 761 769 779 787 794 800 806 812 819 826 833 835 836 839 844 853 856 858 859 861
657 656 661 669 675 682 686 694 700 705 711 716 722 726 729 731 733 732 733 736 741 747 750 757 768 776 783 790 796 803 810 816 821 826 831 835 837 839 842 845 852 854 854
655 655 659 666 671 680 685 690 696 703 709 714 720 724 726 728 730 731 732 732 739 747 752 759 766 774 781 787 793 800 807 812 819 823 827 829 833 836 838 840 845 845 846
653 656 659 662 668 675 680 686 694 701 707 713 718 722 724 726 728 730 731 734 740 746 752 758 765 773 779 786 793 799 805 810 815 819 823 825 827 831 834 837 840 840 842
657 656 658 659 667 671 679 684 690 698 706 712 717 721 723 725 728 730 731 733 738 745 752 758 766 773 780 785 792 797 802 807 812 816 819 821 824 828 831 833 836 837 839
660 654 656 657 663 668 676 683 690 696 703 711 716 720 722 724 727 730 733 735 739 744 751 757 764 771 777 784 790 794 797 802 807 812 816 818 821 824 827 830 832 831 831
652 645 648 654 663 670 676 683 690 695 702 710 715 720 722 725 728 730 734 737 740 743 748 754 761 768 773 780 786 791 794 798 804 808 810 812 816 820 822 825 827 828 828
660 653 654 657 663 670 677 683 690 695 702 709 714 719 722 725 728 731 734 737 742 746 750 755 760 764 770 776 782 787 791 795 798 800 803 807 810 813 817 818 819 821 825
665 662 661 662 667 670 676 684 689 694 701 707 712 717 721 724 728 731 735 738 742 746 750 754 758 762 766 771 777 781 787 790 793 796 799 801 803 807 808 809 810 813 813
671 666 664 666 669 675 678 684 688 692 699 705 711 715 719 722 726 729 733 737 741 745 749 753 757 760 764 767 772 775 780 783 786 789 791 794 797 799 800 802 803 804 805
683 674 670 671 674 678 681 686 689 692 697 704 710 714 717 720 724 727 731 735 738 742 746 749 753 757 761 764 767 771 775 778 780 782 783 786 788 790 791 793 793 794 795
697 692 686 682 680 681 684 687 691 693 697 703 709 713 716 719 723 726 730 733 737 739 742 746 750 754 757 760 762 765 768 771 773 774 776 777 779 780 782 784 784 785 785
708 705 701 695 690 688 690 691 693 695 699 704 709 712 715 718 721 725 728 731 734 737 740 743 746 749 752 754 756 759 761 763 764 766 767 769 771 771 773 774 775 776 775
717 712 709 706 703 699 697 696 697 698 702 705 710 711 713 715 718 721 725 728 731 734 736 739 742 745 748 748 750 753 756 758 759 759 760 761 760 761 762 763 763 763 763
724 721 718 715 711 707 703 702 701 705 710 711 714 716 716 717 719 721 724 725 727 730 732 735 737 738 740 741 743 745 748 750 753 754 753 754 754 754 754 755 755 754 751
732 728 726 721 717 713 710 704 713 715 720 715 721 723 721 721 722 724 727 727 728 730 731 735 737 739 741 741 741 741 743 745 746 747 747 748 748 747 747 748 748 749 749
728 735 732 726 722 722 719 716 714 721 720 725 731 730 725 724 726 729 731 732 731 733 736 738 740 742 743 743 741 740 741 742 745 746 748 747 746 744 743 742 743 746 749
736 738 733 732 733 730 724 719 729 733 731 737 738 736 732 731 734 734 735 737 738 739 741 741 745 745 746 746 743 743 743 745 748 750 751 752 750 745 743 742 742 746 746
747 741 737 744 740 735 736 738 740 745 742 741 743 743 739 741 741 739 741 742 744 745 747 748 751 752 754 753 751 751 750 750 750 754 757 758 755 751 750 750 752 753 755
754 752 748 745 745 744 746 745 749 753 750 750 752 749 746 748 748 745 745 748 749 750 754 757 759 760 760 759 758 757 756 756 756 759 760 760 759 757 757 758 758 759 760
758 758 755 752 753 754 756 756 762 760 757 757 756 758 757 756 755 752 754 757 758 759 762 764 766 767 766 764 764 763 763 764 765 766 766 766 765 765 766 765 765 765 766
770 769 769 770 770 769 767 770 767 766 764 764 763 767 765 763 764 764 766 766 767 767 768 772 771 772 773 773 770 768 769 770 770 771 772 773 772 771 773 773 773 774 774
782 782 782 782 782 781 779 778 775 773 771 770 771 770 770 771 773 775 775 775 774 773 774 777 778 779 777 777 775 774 773 773 774 774 777 780 780 780 780 781 781 780 780
Wind_Speed
18 19 15 12 16 21 26 29 29 29 26 24 22 24 23 26 28 29 30 30 33 34 34 37 38 36 35 35 33 29 28 21 21 19 12 8 9 13 15 16 17 18 18
18 15 10 12 19 22 24 26 27 28 25 21 22 17 20 24 26 29 32 33 35 34 37 39 39 37 30 33 37 33 25 19 25 16 18 5 4 11 14 16 17 18 17
19 15 11 15 18 22 27 27 27 24 21 19 20 17 16 13 21 26 25 37 36 39 39 41 37 34 32 36 38 34 29 19 25 21 12 5 5 10 12 18 18 18 19
19 15 13 15 21 21 22 24 24 23 19 18 19 18 15 15 14 19 21 34 39 39 40 42 39 35 34 32 36 34 32 25 26 20 10 10 12 6 5 11 19 19 21
19 16 13 16 20 21 24 23 21 19 18 21 21 18 14 12 19 14 27 33 32 32 38 38 36 35 34 32 35 34 31 27 26 24 13 8 7 8 3 4 13 18 22
15 9 11 18 21 22 22 23 23 20 19 22 20 18 14 12 13 16 23 25 30 30 33 33 33 32 32 36 36 35 32 32 28 27 24 17 11 8 5 2 8 17 17
8 9 14 14 22 24 25 24 23 22 20 21 20 18 15 13 13 18 21 27 27 27 28 30 29 28 28 31 31 32 35 34 35 34 30 26 24 17 12 8 5 7 11
14 7 12 16 21 24 24 25 25 23 20 20 20 18 16 14 14 18 20 23 28 28 31 29 29 27 23 20 19 27 35 37 33 37 33 30 28 25 20 16 10 4 8
16 12 14 15 22 26 25 24 24 22 22 21 20 18 16 15 14 15 19 22 27 30 33 34 31 29 32 35 33 26 33 36 35 36 35 31 32 32 28 25 19 19 10
20 9 12 15 20 22 22 22 23 22 22 21 21 19 16 14 13 14 17 20 22 30 34 34 34 34 34 38 37 30 28 30 36 35 33 29 28 28 28 23 19 19 22
14 2 6 14 18 19 20 20 22 22 23 23 20 20 17 16 14 14 13 17 22 26 28 30 32 33 35 37 37 34 26 27 31 36 34 31 27 26 27 30 27 21 23
12 5 6 10 15 17 19 19 21 22 22 20 18 19 18 18 17 14 15 16 16 17 22 23 27 29 32 32 33 36 34 27 26 31 34 40 39 40 41 35 34 33 37
13 4 6 7 9 13 17 19 20 21 19 18 18 17 18 17 18 17 17 17 16 15 16 17 18 20 26 28 30 33 33 37 38 36 35 35 32 33 29 29 29 29 30
17 14 5 7 10 13 14 15 17 19 19 17 16 15 17 15 16 16 17 18 19 17 17 17 17 18 19 21 26 29 29 31 32 34 35 33 32 30 29 30 34 35 31
17 16 14 11 9 11 12 11 12 14 15 14 14 14 13 13 12 12 13 14 16 18 19 17 17 18 18 19 21 25 29 30 31 32 33 29 30 33 33 29 30 29 29
14 14 15 15 13 17 15 16 13 10 11 9 6 7 8 9 10 10 10 10 11 11 12 15 16 16 21 23 24 26 28 29 30 28 28 29 32 38 40 42 43 42 35
12 14 14 13 16 17 17 18 20 23 22 19 15 14 10 9 5 8 9 11 12 14 14 14 15 15 16 19 24 26 27 23 26 28 29 30 33 35 37 36 39 42 46
11 12 11 17 19 17 20 20 22 24 21 22 18 15 13 13 11 10 9 8 5 5 5 3 5 13 5 11 20 25 27 31 24 15 16 18 20 18 22 26 27 22 21
8 12 15 18 20 23 22 29 23 23 19 24 20 15 15 16 16 15 12 11 11 14 14 12 12 10 13 9 7 9 11 8 7 2 4 7 10 14 16 17 14 13 2
18 14 16 20 23 22 25 28 28 25 28 24 17 17 19 21 20 18 18 15 17 20 20 23 21 18 19 17 11 6 6 9 11 11 13 18 11 9 8 5 4 9 13
17 16 23 24 22 21 26 33 24 23 23 19 18 19 21 22 19 22 22 22 24 25 25 26 25 28 24 23 19 13 12 14 17 20 22 21 20 18 15 11 15 19 21
19 20 24 23 26 28 25 24 24 17 19 20 21 21 23 21 19 22 24 22 21 22 22 23 23 24 25 26 26 23 20 18 22 21 19 21 26 26 26 27 25 23 22
20 22 22 22 28 30 27 24 20 16 18 21 20 22 23 22 21 23 22 22 21 21 20 19 18 17 17 18 22 24 23 24 25 22 21 21 23 25 27 25 25 23 20
23 23 25 26 26 27 27 24 16 15 17 20 21 21 24 23 24 27 25 22 21 20 18 18 18 18 18 16 14 15 17 20 20 21 25 27 27 27 24 22 22 20 16
22 22 22 22 23 22 22 18 17 13 15 16 17 16 20 25 28 32 26 27 29 21 19 18 17 16 18 19 16 15 14 14 18 17 16 17 18 19 18 18 17 16 15
19 20 20 19 18 18 20 18 14 12 13 15 15 15 16 17 18 21 27 32 31 30 27 23 20 21 20 18 18 17 15 15 15 17 17 17 16 16 15 14 14 15 14
Wind_Direction
274 275 271 242 205 193 191 192 183 185 186 193 198 208 210 217 215 212 209 206 196 193 182 183 191 185 176 175 174 167 166 168 168 151 153 154 180 193 198 199 199 205 206
262 265 247 208 205 191 185 182 181 181 182 189 193 202 206 219 214 215 211 213 210 199 192 187 184 180 176 170 174 171 163 164 173 175 157 162 183 214 207 210 209 212 211
250 256 226 208 203 192 185 180 178 174 182 184 190 203 215 222 213 214 206 209 212 202 193 195 186 180 176 176 178 175 171 164 178 176 164 161 192 174 206 216 217 215 219
245 247 226 206 202 191 181 176 175 174 181 184 189 199 207 211 216 211 205 196 202 197 195 187 187 181 179 178 180 180 179 173 176 183 202 181 151 183 178 213 221 221 224
247 243 216 204 191 179 172 172 170 172 177 182 191 192 205 218 218 211 186 178 183 172 169 176 181 180 178 179 180 181 184 185 179 184 182 172 163 157 150 177 206 222 226
260 237 195 178 177 175 166 168 167 172 176 185 191 195 196 192 184 169 155 153 162 163 173 180 184 179 179 182 183 187 189 189 190 192 197 184 177 182 168 159 196 215 216
298 183 178 177 176 175 174 166 170 170 172 182 188 195 190 187 184 175 161 153 154 156 162 167 169 175 182 188 188 188 194 197 203 202 206 208 210 212 204 204 184 207 216
325 240 197 179 183 174 176 171 171 168 171 176 184 188 189 184 187 184 167 162 163 167 170 168 169 170 176 187 199 208 204 206 211 215 213 216 218 220 219 215 204 209 212
318 278 206 187 183 177 176 175 169 164 169 174 177 177 175 182 181 184 182 164 168 180 188 183 186 192 199 201 204 221 218 214 215 223 225 225 231 236 238 240 242 241 247
329 282 196 183 182 178 167 164 168 165 167 170 179 181 179 177 183 185 184 181 173 173 178 190 198 197 197 200 201 217 224 222 223 224 227 228 233 236 236 245 246 254 254
350 24 180 172 172 160 161 159 163 161 162 171 172 180 180 182 180 184 186 188 194 188 184 187 188 185 197 201 202 211 222 230 228 235 237 232 234 248 251 252 262 259 250
347 43 142 151 153 151 151 158 160 160 165 168 167 174 180 186 190 191 188 186 182 186 195 199 202 205 202 204 207 212 219 225 221 226 228 233 242 246 247 249 250 246 253
352 45 105 130 137 146 152 158 161 160 162 165 171 181 181 180 192 196 200 200 196 195 193 193 196 202 211 207 214 213 213 223 235 237 235 236 232 234 239 239 240 243 248
8 12 93 116 129 135 141 157 161 161 161 170 178 179 185 186 187 193 197 201 202 199 199 203 206 208 208 212 220 220 218 224 232 237 237 240 237 238 238 236 241 245 243
14 17 17 44 70 99 111 135 146 153 156 169 186 190 183 182 187 191 194 196 201 205 205 202 207 211 212 214 215 223 232 236 240 243 245 241 242 244 244 238 245 244 244
15 20 22 30 41 50 62 64 57 140 144 150 166 188 192 194 198 196 194 198 204 207 207 209 213 217 229 237 236 237 239 241 241 240 244 247 251 259 260 259 258 255 252
17 22 25 24 34 48 53 65 67 74 82 84 75 79 108 107 133 213 220 223 225 226 227 228 227 228 216 230 235 240 240 242 244 247 250 248 253 262 262 264 265 265 266
23 23 22 32 35 46 60 60 66 73 66 65 59 57 70 74 76 87 93 96 112 125 146 149 207 172 173 229 233 237 238 239 245 262 258 253 253 252 249 251 255 264 259
31 31 28 35 44 48 54 61 56 65 66 57 49 48 61 68 65 59 58 75 90 84 83 79 83 80 44 24 351 283 255 232 199 209 291 275 271 273 281 275 279 268 236
60 30 36 39 41 48 59 60 55 49 49 47 42 47 59 62 64 63 62 69 88 92 89 80 73 65 48 39 38 52 137 137 108 81 58 53 42 358 325 297 233 147 127
46 48 44 39 32 42 53 61 53 53 55 56 52 54 59 62 65 71 70 75 79 83 81 79 71 64 56 49 55 69 98 106 94 78 64 56 60 64 68 78 115 117 125
41 39 52 39 34 39 51 60 56 51 61 61 57 55 59 59 64 71 70 70 75 74 69 71 65 62 61 55 59 70 84 92 90 82 79 72 67 73 79 86 97 106 106
45 42 48 50 39 39 37 47 46 49 62 66 59 60 63 62 62 65 63 61 63 67 64 64 64 62 57 60 64 66 78 84 86 89 90 89 85 86 84 89 94 90 81
42 40 42 41 36 35 40 41 43 54 62 67 65 61 65 67 63 61 61 62 59 64 67 67 63 59 56 55 59 70 78 83 86 89 91 87 82 80 75 70 65 67 70
47 46 48 47 43 40 39 36 39 55 69 70 73 73 70 71 70 66 65 68 65 71 73 65 68 68 61 57 68 76 79 85 96 91 78 69 65 64 60 60 59 57 56
53 54 53 53 47 46 45 38 41 58 76 76 72 72 74 76 78 81 76 67 70 69 68 69 72 70 73 70 69 73 87 102 99 81 73 65 62 61 58 55 52 49 48